Weather History for Abilene, TX

Change the Weather History Date:

Friday, February 7, 2014

  Actual Average Record
Temperature  
Mean Temperature 25 °F 47 °F  
Max Temperature 34 °F 59 °F 86 °F (1932)
Min Temperature 16 °F 35 °F -2 °F (1895)
Degree Days  
Heating Degree Days 40 18  
Month to date heating degree days 250 130  
Since 1 July heating degree days 2047 1799  
Cooling Degree Days 0 0  
Month to date cooling degree days 0 0  
Year to date cooling degree days 0 1  
Moisture  
Dew Point 18 °F    
Average Humidity 81    
Maximum Humidity 92    
Minimum Humidity 69    
Precipitation  
Precipitation T in 0.05 in 1.53 in (1931)
Month to date precipitation 0.46 0.30  
Year to date precipitation 0.46 1.32  
Sea Level Pressure  
Sea Level Pressure 30.24 in    
Wind  
Wind Speed 7 mph (SSE)    
Max Wind Speed 16 mph    
Max Gust Speed 20 mph    
Visibility 9 miles    
Events Snow    
T = Trace of Precipitation, MM = Missing Value Source: NWS Daily Summary

Daily Weather History Graph

Daily Weather History Graph

Search for Another Location

Airport:

Trip Planner

Search our weather history database for the weather conditions in past years. The results will help you decide how hot, cold, wet, or windy it might be!

Date:

Astronomy

Feb. 07, 2014 Rise Set
Actual Time 7:28 AM CST 6:17 PM CST
Civil Twilight 7:03 AM CST 6:43 PM CST
Nautical Twilight 6:33 AM CST 7:12 PM CST
Astronomical Twilight 6:05 AM CST 7:40 PM CST
Moon 12:33 PM CST (2/7) 1:43 AM CST (2/7)
Length of Visible Light 11h 40m
Length of Day
10h 49m
First Quarter, 59% of the Moon is Illuminated
Feb 7
First Quarter
Feb 14
Full
Feb 22
Last Quarter
Mar 1
New
Mar 8
First Quarter

Hourly Weather History & Observations

Time (CST) Temp. Windchill Dew Point Humidity Pressure Visibility Wind Dir Wind Speed Gust Speed Precip Events Conditions
12:52 AM 16.0 °F - 10.0 °F 77% 30.39 in 10.0 mi Calm Calm - N/A   Overcast
1:52 AM 16.0 °F - 10.0 °F 77% 30.37 in 10.0 mi Calm Calm - N/A   Overcast
2:37 AM 17.1 °F - 10.0 °F 74% 30.29 in 10.0 mi Calm Calm - N/A   Overcast
2:52 AM 17.1 °F - 10.0 °F 74% 30.36 in 10.0 mi Calm Calm - N/A   Overcast
3:52 AM 17.1 °F 8.7 °F 10.9 °F 77% 30.32 in 10.0 mi East 5.8 mph - N/A   Overcast
4:45 AM 18.0 °F - 10.9 °F 74% 30.23 in - North - - N/A   Unknown
4:52 AM 18.0 °F 12.7 °F 10.9 °F 74% 30.30 in 10.0 mi ESE 3.5 mph - N/A   Unknown
5:16 AM 18.0 °F 12.7 °F 10.9 °F 74% 30.24 in 10.0 mi ESE 3.5 mph - N/A   Overcast
5:52 AM 18.0 °F 11.1 °F 12.0 °F 78% 30.31 in 10.0 mi East 4.6 mph - N/A   Overcast
6:52 AM 18.0 °F 12.7 °F 12.0 °F 78% 30.33 in 10.0 mi ESE 3.5 mph - N/A   Overcast
7:52 AM 18.0 °F 9.8 °F 12.9 °F 81% 30.34 in 10.0 mi SSE 5.8 mph - N/A   Overcast
8:52 AM 19.0 °F 12.3 °F 12.9 °F 77% 30.33 in 10.0 mi SE 4.6 mph - N/A   Overcast
9:52 AM 19.9 °F 12.1 °F 14.0 °F 78% 30.32 in 10.0 mi SE 5.8 mph - N/A   Overcast
10:35 AM 21.9 °F 15.7 °F 15.1 °F 75% 30.27 in 10.0 mi SSW 4.6 mph - N/A   Overcast
10:52 AM 21.9 °F 12.5 °F 15.1 °F 75% 30.33 in 10.0 mi South 8.1 mph - N/A   Overcast
11:09 AM 23.0 °F 13.1 °F 16.0 °F 74% 30.26 in 10.0 mi SSE 9.2 mph - N/A   Overcast
11:52 AM 25.0 °F 15.5 °F 17.1 °F 72% 30.31 in 10.0 mi SSE 9.2 mph - N/A   Overcast
12:09 PM 25.0 °F 19.3 °F 19.0 °F 78% 30.25 in 2.0 mi South 4.6 mph - 0.00 in Snow Light Snow
12:22 PM 26.1 °F 17.6 °F 19.9 °F 78% 30.24 in 2.0 mi SSW 8.1 mph - 0.00 in Snow Light Snow
12:52 PM 26.1 °F 18.4 °F 21.0 °F 81% 30.28 in 2.0 mi South 6.9 mph - 0.00 in Snow Light Snow
1:02 PM 26.1 °F 19.4 °F 21.9 °F 84% 30.21 in 1.8 mi South 5.8 mph - 0.00 in Snow Light Snow
1:05 PM 27.0 °F 19.5 °F 21.9 °F 81% 30.21 in 2.0 mi South 6.9 mph - 0.00 in Snow Light Snow
1:17 PM 26.1 °F 18.4 °F 21.9 °F 84% 30.19 in 2.5 mi South 6.9 mph - 0.00 in Snow Light Snow
1:23 PM 28.0 °F 21.7 °F 23.0 °F 81% 30.19 in 3.0 mi SSE 5.8 mph - 0.00 in Snow Light Snow
1:52 PM 28.9 °F 21.1 °F 23.0 °F 78% 30.22 in 10.0 mi South 8.1 mph - 0.00 in   Overcast
2:20 PM 30.0 °F 23.2 °F 24.1 °F 79% 30.15 in 10.0 mi South 6.9 mph - N/A   Overcast
2:52 PM 30.9 °F 23.5 °F 24.1 °F 76% 30.17 in 10.0 mi South 8.1 mph - N/A   Overcast
3:52 PM 33.1 °F 24.9 °F 25.0 °F 72% 30.16 in 10.0 mi SSW 10.4 mph - N/A   Overcast
4:52 PM 33.1 °F 24.4 °F 25.0 °F 72% 30.17 in 10.0 mi SSW 11.5 mph - N/A   Overcast
5:29 PM 33.1 °F 24.4 °F 24.1 °F 70% 30.11 in 10.0 mi South 11.5 mph - N/A   Scattered Clouds
5:52 PM 32.0 °F 24.2 °F 24.1 °F 73% 30.16 in 10.0 mi South 9.2 mph - N/A   Clear
6:52 PM 30.0 °F 23.2 °F 23.0 °F 75% 30.17 in 10.0 mi SSE 6.9 mph - N/A   Clear
7:52 PM 28.9 °F 20.4 °F 23.0 °F 78% 30.16 in 10.0 mi SE 9.2 mph - N/A   Clear
8:52 PM 28.0 °F 20.0 °F 23.0 °F 81% 30.17 in 10.0 mi SE 8.1 mph - N/A   Clear
9:52 PM 27.0 °F 16.1 °F 23.0 °F 85% 30.16 in 10.0 mi SSE 12.7 mph - N/A   Clear
10:52 PM 27.0 °F 17.3 °F 24.1 °F 89% 30.14 in 9.0 mi SSE 10.4 mph - N/A   Clear
11:52 PM 30.0 °F 21.1 °F 26.1 °F 85% 30.12 in 10.0 mi South 10.4 mph - N/A   Clear